TimeCET,TemperatureF,Dew PointF,Humidity,Sea Level PressureIn,VisibilityMPH,Wind Direction,Wind SpeedMPH,Gust SpeedMPH,PrecipitationIn,Events,Conditions,WindDirDegrees,DateUTC
12:00 AM,33.8,33.8,100,30.24,0.2,NNW,2.3,-,N/A,Fog,Fog,330,2013-02-25 23:00:00
12:30 AM,33.8,33.8,100,30.24,0.2,NW,3.5,-,N/A,Fog,Fog,320,2013-02-25 23:30:00
1:00 AM,33,33,99,30.30,0,North,4.5,,,Fog,Heavy Fog,350,2013-02-26 00:00:00
1:00 AM,33.8,33.8,100,30.24,0.2,NNW,3.5,-,N/A,Fog,Fog,340,2013-02-26 00:00:00
1:30 AM,33.8,33.8,100,30.24,0.2,North,3.5,-,N/A,Fog,Fog,350,2013-02-26 00:30:00
2:00 AM,33.8,33.8,100,30.24,0.1,NNW,3.5,-,N/A,Fog,Fog,340,2013-02-26 01:00:00
2:30 AM,33.8,33.8,100,30.24,0.1,Variable,2.3,-,N/A,Fog,Fog,0,2013-02-26 01:30:00
3:00 AM,33.8,33.8,100,30.24,0.1,West,3.5,-,N/A,Fog,Fog,280,2013-02-26 02:00:00
3:30 AM,33.8,33.8,100,30.24,0.2,Calm,Calm,-,N/A,Fog,Fog,0,2013-02-26 02:30:00
4:00 AM,33.8,33.8,100,30.24,0.2,NW,4.6,-,N/A,Fog,Fog,320,2013-02-26 03:00:00
4:30 AM,35.6,33.8,93,30.24,0.2,West,4.6,-,N/A,Fog,Fog,280,2013-02-26 03:30:00
5:00 AM,35.6,33.8,93,30.24,0.2,NW,4.6,-,N/A,Fog,Fog,320,2013-02-26 04:00:00
5:30 AM,35.6,35.6,100,30.24,0.2,NW,9.2,-,N/A,Fog,Fog,320,2013-02-26 04:30:00
6:00 AM,35.6,35.6,100,30.24,0.4,NNW,5.8,-,N/A,Fog,Fog,340,2013-02-26 05:00:00
6:13 AM,35.6,35.6,100,30.21,1.5,NNW,8.1,-,N/A,,Mostly Cloudy,340,2013-02-26 05:13:00
6:30 AM,35.6,35.6,100,30.21,1.1,NNW,8.1,-,N/A,,Mostly Cloudy,330,2013-02-26 05:30:00
6:40 AM,35.6,33.8,93,30.21,0.4,NNW,9.2,-,N/A,Fog,Fog,330,2013-02-26 05:40:00
6:52 AM,35.6,33.8,93,30.21,1.0,NNW,10.4,-,N/A,,Mostly Cloudy,330,2013-02-26 05:52:00
7:00 AM,35,35,97,30.29,1,NNW,13.4,,,Fog,Light Fog,340,2013-02-26 06:00:00
7:00 AM,35.6,33.8,93,30.21,1.1,NNW,11.5,-,N/A,,Mostly Cloudy,330,2013-02-26 06:00:00
7:21 AM,35.6,33.8,93,30.24,0.9,NNW,12.7,-,N/A,,Mostly Cloudy,340,2013-02-26 06:21:00
7:30 AM,35.6,33.8,93,30.24,1.0,NNW,11.5,-,N/A,,Mostly Cloudy,340,2013-02-26 06:30:00
8:00 AM,35.6,33.8,93,30.24,0.9,North,8.1,-,N/A,,Overcast,350,2013-02-26 07:00:00
8:16 AM,35.6,33.8,93,30.24,1.2,North,8.1,-,N/A,,Overcast,360,2013-02-26 07:16:00
8:30 AM,33.8,33.8,100,30.24,1.2,North,9.2,-,N/A,,Overcast,360,2013-02-26 07:30:00
8:38 AM,35.6,33.8,93,30.24,1.2,North,10.4,-,N/A,,Overcast,360,2013-02-26 07:38:00
8:52 AM,35.6,33.8,93,30.24,1.5,North,8.1,-,N/A,,Overcast,360,2013-02-26 07:52:00
9:00 AM,35.6,33.8,93,30.24,1.6,North,8.1,-,N/A,,Overcast,360,2013-02-26 08:00:00
9:30 AM,35.6,33.8,93,30.27,-9999.0,North,9.2,-,N/A,,Overcast,360,2013-02-26 08:30:00
10:00 AM,35.6,33.8,93,30.27,2.5,North,8.1,-,N/A,,Overcast,10,2013-02-26 09:00:00
10:30 AM,35.6,33.8,93,30.27,-9999.0,North,8.1,-,N/A,,Overcast,360,2013-02-26 09:30:00
11:00 AM,35.6,33.8,93,30.27,2.8,North,6.9,-,N/A,,Overcast,360,2013-02-26 10:00:00
11:30 AM,35.6,33.8,93,30.27,3.1,North,6.9,-,N/A,,Overcast,350,2013-02-26 10:30:00
12:00 PM,35.6,33.8,93,30.27,3.1,NNW,10.4,-,N/A,,Overcast,340,2013-02-26 11:00:00
12:30 PM,35.6,33.8,93,30.27,3.1,North,9.2,-,N/A,,Overcast,10,2013-02-26 11:30:00
1:00 PM,35.6,33.8,93,30.27,3.7,North,8.1,-,N/A,,Overcast,360,2013-02-26 12:00:00
1:30 PM,35.6,32.0,87,30.27,3.7,North,10.4,-,N/A,,Overcast,350,2013-02-26 12:30:00
2:00 PM,35.6,32.0,87,30.27,3.7,North,10.4,-,N/A,,Overcast,350,2013-02-26 13:00:00
2:30 PM,33.8,32.0,93,30.27,3.7,North,12.7,-,N/A,,Overcast,350,2013-02-26 13:30:00
3:00 PM,33.8,32.0,93,30.27,4.3,North,11.5,-,N/A,,Overcast,350,2013-02-26 14:00:00
3:30 PM,33.8,32.0,93,30.27,4.3,North,10.4,-,N/A,,Overcast,350,2013-02-26 14:30:00
4:00 PM,33.8,32.0,93,30.27,5.6,North,11.5,-,N/A,,Overcast,350,2013-02-26 15:00:00
4:30 PM,33.8,32.0,93,30.27,5.6,North,11.5,-,N/A,,Overcast,350,2013-02-26 15:30:00
5:00 PM,33.8,32.0,93,30.27,5.6,North,10.4,-,N/A,,Overcast,350,2013-02-26 16:00:00
5:30 PM,33.8,32.0,93,30.27,4.3,North,11.5,-,N/A,,Overcast,350,2013-02-26 16:30:00
6:00 PM,32.0,32.0,100,30.30,4.3,North,12.7,-,N/A,,Overcast,350,2013-02-26 17:00:00
6:30 PM,32.0,32.0,100,30.30,4.3,North,13.8,-,N/A,,Overcast,350,2013-02-26 17:30:00
7:00 PM,32,31,95,30.38,4,North,13.4,,,,Mist,350,2013-02-26 18:00:00
7:00 PM,32.0,32.0,100,30.30,3.7,North,11.5,-,N/A,,Overcast,360,2013-02-26 18:00:00
7:30 PM,32.0,30.2,93,30.30,3.1,North,11.5,-,N/A,,Light Drizzle,350,2013-02-26 18:30:00
8:00 PM,32.0,30.2,93,30.33,3.7,NNW,8.1,-,N/A,,Drizzle,340,2013-02-26 19:00:00
8:30 PM,32.0,30.2,93,30.33,5.0,NNW,9.2,-,N/A,,Drizzle,340,2013-02-26 19:30:00
9:00 PM,32.0,30.2,93,30.33,5.0,NNW,10.4,-,N/A,,Drizzle,340,2013-02-26 20:00:00
9:17 PM,32.0,30.2,93,30.33,5.0,NNW,10.4,-,N/A,,Overcast,340,2013-02-26 20:17:00
9:30 PM,32.0,30.2,93,30.33,5.0,NNW,10.4,-,N/A,,Overcast,340,2013-02-26 20:30:00
10:00 PM,32.0,30.2,93,30.33,3.1,NNW,10.4,-,N/A,,Drizzle,340,2013-02-26 21:00:00
10:30 PM,32.0,30.2,93,30.33,-9999.0,NNW,10.4,-,N/A,,Drizzle,340,2013-02-26 21:30:00
11:00 PM,32.0,30.2,93,30.33,3.1,NNW,10.4,-,N/A,,Drizzle,340,2013-02-26 22:00:00
11:30 PM,32.0,30.2,93,30.33,3.1,NNW,10.4,-,N/A,,Drizzle,330,2013-02-26 22:30:00